Temp
63 63 63 62 62 62 62 62 63 63 63 63 63 63 62 62 62 62 66 79 80 76 74 83 83 84 84 80 83 82 65 67 75 73 74 84 82 88 92 86 88 89 83 85 88
63 62 62 62 62 62 62 62 62 63 62 62 62 62 62 62 62 68 81 78 77 76 82 80 79 82 74 75 78 73 64 73 85 86 80 83 84 87 86 83 81 83 86 89 89
62 62 62 62 62 61 62 62 62 63 63 62 62 62 62 62 65 79 77 77 75 77 86 87 86 81 73 75 76 77 72 82 85 88 87 85 84 90 84 77 81 78 82 85 85
62 62 62 62 61 61 62 62 63 63 62 62 62 62 63 65 64 79 77 76 76 80 82 82 81 71 69 70 80 72 83 86 86 88 87 83 89 87 86 84 87 85 85 84 83
61 61 61 61 61 61 61 62 62 62 62 62 62 63 63 65 73 79 77 76 80 82 81 79 76 72 67 73 78 75 81 86 87 88 86 88 86 84 82 89 89 88 86 83 82
60 60 61 61 60 61 61 61 61 61 61 62 62 63 64 63 88 82 82 80 84 80 80 80 79 81 76 76 70 81 83 85 85 83 84 81 87 84 85 89 87 85 83 83 82
60 60 60 60 60 60 61 60 60 60 61 63 64 72 70 71 91 85 86 81 86 87 82 86 87 80 78 75 83 82 76 82 83 82 82 86 81 80 85 87 83 83 84 83 82
60 60 60 60 60 60 60 60 60 61 62 64 65 69 65 89 91 87 88 87 89 90 90 91 91 82 75 82 81 74 73 64 78 83 86 83 67 82 78 82 81 84 85 84 82
60 59 60 60 60 60 60 59 61 63 64 66 63 64 68 88 89 93 92 89 90 90 90 100 85 76 79 69 65 67 61 66 73 84 83 78 68 81 82 86 82 83 83 83 81
60 59 59 59 59 59 58 60 66 64 65 76 80 67 76 81 90 95 94 95 89 86 84 79 74 67 67 62 54 61 62 67 68 81 82 76 75 75 76 78 80 79 83 83 82
60 59 59 59 59 58 58 64 71 67 71 71 74 76 83 90 95 91 94 90 86 79 67 73 62 58 65 70 73 72 69 69 78 85 79 76 74 73 73 74 70 74 82 82 82
60 60 59 59 58 58 56 62 72 74 63 78 80 82 87 89 84 89 94 80 76 67 73 66 62 73 78 78 76 73 69 67 76 83 78 76 75 76 76 73 71 75 84 83 82
59 59 59 58 58 59 65 74 83 78 61 72 80 80 82 85 82 83 87 82 74 69 70 64 72 81 79 76 75 72 66 67 69 78 77 74 70 76 78 79 80 84 87 85 84
58 58 58 57 57 67 70 83 83 80 51 66 73 81 84 84 78 91 91 83 76 71 72 69 79 79 77 75 73 62 76 77 76 68 59 71 55 69 76 78 83 84 84 86 86
58 59 59 58 56 60 77 84 81 72 40 76 78 90 85 77 80 82 91 83 74 75 73 69 74 73 72 75 78 71 79 73 73 65 59 66 58 65 74 72 77 86 87 83 87
58 59 58 62 57 63 73 78 73 51 44 72 81 77 75 78 80 82 83 86 84 77 78 75 83 78 75 82 81 82 73 69 65 60 51 62 59 60 66 73 75 79 83 87 86
58 58 57 66 61 73 73 69 49 44 73 71 72 77 74 73 76 78 76 71 66 58 60 72 74 78 81 73 76 71 59 49 47 49 50 65 60 67 75 80 79 80 82 85 82
57 56 58 63 68 73 67 55 42 61 64 77 78 76 71 73 73 76 72 65 72 69 62 59 58 74 82 73 67 65 63 51 45 46 52 66 57 70 81 85 81 81 83 80 83
57 58 58 65 69 69 58 46 50 61 75 74 77 69 69 75 74 73 70 69 73 72 58 59 64 82 83 81 74 66 59 70 57 56 51 58 67 76 79 80 81 80 81 79 75
57 57 61 71 72 67 54 49 58 71 75 74 65 72 64 70 69 67 67 75 75 78 73 66 59 76 81 81 76 68 72 57 55 47 44 56 59 60 70 76 77 76 78 77 79
55 54 67 75 73 60 49 54 63 73 73 71 67 66 67 69 71 68 69 76 80 79 76 69 62 67 73 66 65 65 61 60 58 56 49 48 56 69 69 71 74 69 69 73 77
54 48 74 76 56 59 54 60 62 71 76 75 72 70 67 68 70 69 69 74 83 79 70 67 61 55 63 76 79 72 65 61 52 52 55 53 53 74 73 74 71 66 68 66 62
50 56 66 72 52 54 60 64 69 69 70 72 69 73 72 66 60 68 73 80 81 76 67 65 57 50 57 64 68 65 71 68 63 57 53 50 52 76 74 73 67 64 67 67 65
52 47 53 67 66 59 57 60 62 74 73 74 71 73 67 65 69 66 71 78 78 75 67 68 60 56 50 56 61 61 68 69 60 50 53 55 60 65 69 69 64 64 64 66 63
52 50 53 47 58 59 59 62 63 64 71 70 66 69 66 58 62 59 62 70 76 68 70 64 56 60 64 70 69 68 69 68 62 60 55 59 58 62 66 67 64 63 67 67 67
49 49 52 53 56 60 57 59 63 68 66 65 61 70 69 60 63 59 61 59 64 66 63 64 55 60 60 70 70 67 69 69 71 69 64 63 57 66 69 70 69 69 70 68 64
58 55 52 51 56 56 58 62 66 69 70 73 70 67 65 68 69 69 61 64 59 58 60 59 56 54 50 64 64 56 62 65 63 63 61 53 56 63 64 65 64 65 66 67 67
MSLP
1018.73 1018.21 1017.89 1017.67 1017.04 1016.42 1015.90 1015.28 1014.76 1014.44 1013.97 1013.42 1012.98 1012.50 1012.16 1011.79 1011.46 1011.24 1009.77 1007.01 1006.67 1006.79 1007.29 1007.23 1007.14 1007.02 1006.96 1007.00 1006.71 1006.51 1007.27 1006.49 1005.53 1005.46 1005.38 1002.82 1002.90 1003.26 1003.47 1004.16 1005.14 1005.52 1006.73 1007.93 1008.81
1018.64 1018.18 1017.92 1017.68 1017.07 1016.45 1015.91 1015.11 1014.58 1014.18 1013.72 1013.15 1012.83 1012.45 1012.01 1011.62 1011.11 1009.40 1006.39 1006.13 1006.16 1006.53 1007.02 1007.09 1006.94 1006.80 1007.03 1006.47 1006.44 1006.24 1006.10 1004.81 1003.71 1003.53 1003.31 1002.47 1002.33 1002.81 1003.53 1004.49 1005.73 1006.32 1007.19 1007.99 1008.54
1018.65 1018.16 1017.89 1017.52 1017.14 1016.42 1015.90 1015.13 1014.43 1013.93 1013.59 1013.06 1012.66 1012.22 1011.95 1011.55 1010.66 1006.82 1005.73 1005.94 1006.17 1006.34 1006.35 1006.32 1006.22 1006.36 1006.55 1006.24 1005.84 1005.39 1004.85 1003.59 1002.77 1001.49 1001.63 1001.75 1002.01 1002.23 1003.49 1004.72 1005.46 1006.48 1007.51 1008.16 1008.65
1018.51 1018.06 1017.71 1017.43 1016.91 1016.28 1015.68 1014.86 1014.08 1013.68 1013.30 1012.88 1012.45 1011.98 1011.81 1011.36 1009.37 1006.24 1005.96 1006.09 1006.35 1006.49 1006.61 1006.44 1006.19 1006.26 1006.21 1006.12 1005.04 1004.83 1003.57 1002.83 1002.33 1001.06 1001.01 1001.65 1001.61 1002.36 1003.01 1004.30 1005.21 1006.37 1007.22 1008.14 1008.73
1018.16 1017.86 1017.63 1017.18 1016.57 1015.91 1015.39 1014.56 1013.93 1013.31 1012.98 1012.70 1012.22 1011.82 1011.67 1010.63 1007.65 1005.84 1006.13 1006.32 1006.45 1006.53 1006.42 1006.32 1006.11 1005.89 1005.77 1005.42 1004.90 1004.43 1003.24 1002.09 1001.44 1000.72 1000.86 1001.47 1001.80 1002.82 1003.74 1004.34 1005.25 1006.37 1007.30 1008.15 1008.69
1017.91 1017.59 1017.40 1016.87 1016.42 1015.89 1015.08 1014.18 1013.49 1013.05 1012.73 1012.40 1012.09 1011.84 1011.45 1009.21 1005.37 1005.50 1006.03 1006.41 1006.05 1006.30 1005.96 1005.83 1005.55 1005.22 1005.35 1005.01 1005.12 1004.04 1003.39 1002.00 1001.34 1001.20 1000.72 1001.10 1002.32 1002.70 1004.22 1004.34 1005.36 1006.18 1007.21 1008.01 1008.52
1017.91 1017.63 1017.21 1016.67 1016.20 1015.46 1014.73 1013.91 1013.12 1012.84 1012.40 1011.93 1011.90 1011.45 1010.20 1006.97 1005.09 1005.28 1005.57 1005.76 1005.50 1005.65 1005.59 1004.97 1004.69 1005.10 1004.79 1005.01 1004.24 1003.85 1003.68 1002.35 1001.41 1001.06 1000.87 1000.99 1002.54 1003.96 1004.87 1004.85 1005.69 1006.40 1006.96 1007.84 1008.36
1017.63 1017.47 1017.06 1016.51 1015.93 1015.23 1014.46 1013.47 1012.59 1011.97 1011.52 1011.36 1011.51 1010.91 1008.68 1004.43 1004.51 1005.06 1005.07 1005.35 1005.17 1005.02 1004.95 1004.35 1004.07 1004.54 1004.85 1004.58 1004.20 1004.37 1003.66 1003.11 1001.68 1001.14 1000.88 1001.35 1003.32 1003.97 1004.64 1005.40 1006.32 1006.59 1007.00 1007.41 1007.97
1017.34 1017.08 1016.60 1016.08 1015.56 1014.90 1014.26 1013.15 1011.40 1010.74 1010.73 1010.91 1011.17 1010.19 1007.11 1003.79 1003.87 1004.00 1004.20 1004.64 1004.60 1004.55 1004.32 1004.02 1003.95 1004.46 1004.72 1005.03 1005.12 1004.71 1004.38 1003.49 1002.36 1001.22 1001.21 1001.61 1003.25 1003.86 1004.01 1004.41 1005.33 1006.54 1006.75 1007.20 1007.34
1016.80 1016.63 1016.38 1015.94 1015.40 1015.17 1014.23 1012.15 1009.73 1009.99 1010.22 1010.36 1009.74 1009.24 1006.00 1003.83 1003.32 1003.28 1003.46 1003.76 1004.08 1004.40 1004.62 1004.49 1004.67 1004.95 1005.28 1005.62 1005.58 1005.14 1004.40 1003.57 1002.66 1001.17 1001.35 1001.65 1002.37 1003.65 1003.81 1004.73 1006.20 1006.38 1006.26 1006.73 1006.96
1016.54 1016.25 1015.97 1015.64 1015.31 1015.42 1014.48 1012.80 1010.27 1009.84 1009.19 1008.75 1007.75 1006.40 1004.13 1003.24 1002.80 1002.95 1003.18 1003.59 1003.90 1004.49 1005.04 1005.04 1005.59 1005.46 1005.33 1005.13 1004.89 1004.45 1004.08 1003.43 1001.87 1000.86 1000.94 1001.19 1002.14 1003.39 1004.67 1004.96 1006.09 1006.60 1006.13 1005.69 1006.10
1016.48 1016.30 1016.09 1015.77 1015.34 1014.76 1015.16 1013.37 1010.10 1009.70 1008.24 1007.07 1006.23 1005.54 1004.13 1003.51 1002.98 1002.72 1002.94 1003.75 1004.25 1004.72 1005.08 1005.51 1005.02 1004.45 1004.26 1004.13 1003.98 1003.74 1003.52 1003.12 1002.00 1000.80 1000.74 1000.93 1001.86 1002.68 1004.11 1004.41 1004.40 1004.86 1004.54 1004.58 1005.10
1016.31 1016.19 1016.06 1015.86 1015.13 1014.04 1013.00 1011.04 1008.98 1008.54 1008.36 1005.45 1004.41 1003.87 1003.17 1002.97 1002.47 1002.37 1002.81 1003.35 1003.97 1004.64 1004.81 1004.93 1003.55 1003.62 1003.50 1003.12 1003.02 1002.84 1002.92 1002.65 1002.21 1001.24 1001.08 1001.34 1001.84 1002.25 1002.95 1003.02 1003.14 1003.13 1002.89 1003.29 1003.53
1015.97 1015.92 1015.96 1015.75 1015.26 1013.18 1011.28 1008.78 1008.52 1008.45 1008.31 1004.41 1002.47 1001.66 1002.10 1002.39 1001.94 1001.78 1002.14 1003.06 1003.59 1003.82 1004.12 1003.91 1003.01 1002.92 1002.66 1002.10 1001.94 1002.02 1001.83 1002.19 1002.28 1002.35 1002.57 1001.97 1002.52 1001.97 1001.76 1001.96 1001.87 1001.46 1002.02 1002.17 1002.28
1015.48 1015.60 1015.74 1015.97 1015.06 1013.29 1009.67 1008.78 1008.52 1008.87 1007.35 1001.13 1000.52 999.63 1000.70 1001.76 1001.14 1001.41 1001.67 1002.37 1002.86 1003.03 1003.20 1002.86 1002.04 1001.77 1001.48 1001.16 1001.25 1001.85 1001.97 1002.56 1002.88 1003.16 1003.24 1002.79 1003.12 1002.05 1001.36 1001.14 1000.71 1000.42 1000.07 1000.82 1000.78
1015.09 1015.36 1015.51 1014.90 1014.81 1011.66 1010.74 1009.90 1009.16 1009.15 1005.36 1000.66 999.89 999.96 1000.70 1001.41 1001.41 1001.31 1001.50 1001.89 1002.23 1002.80 1002.58 1002.02 1001.06 1000.99 1000.83 1000.70 1001.10 1001.70 1002.26 1002.93 1003.43 1004.20 1004.49 1003.72 1003.21 1002.64 1001.70 1000.57 1000.03 999.56 999.47 999.59 999.82
1014.82 1015.09 1015.31 1014.35 1012.52 1011.02 1011.13 1009.86 1009.74 1007.38 1002.28 1000.69 1000.15 1000.08 1000.43 1001.01 1001.27 1001.32 1001.34 1002.01 1002.43 1002.79 1002.61 1001.99 1001.03 1000.76 1000.63 1001.05 1001.27 1002.04 1003.23 1004.61 1005.38 1005.52 1005.48 1003.83 1003.61 1001.94 1000.02 999.06 999.01 999.03 998.73 998.80 998.99
1014.62 1014.94 1014.20 1013.36 1012.44 1011.80 1011.77 1010.65 1008.97 1004.82 1002.43 1000.39 999.99 999.82 1000.35 1000.67 1001.03 1000.94 1001.30 1002.06 1002.30 1002.67 1002.68 1002.36 1001.39 1000.83 1000.44 1000.94 1001.71 1002.49 1003.60 1005.08 1005.77 1006.11 1005.72 1004.29 1002.85 1000.91 999.19 998.15 998.49 998.43 998.63 998.92 999.18
1014.67 1014.45 1013.50 1011.70 1012.00 1012.34 1012.49 1010.31 1007.01 1004.16 1001.62 1000.40 999.12 999.46 1000.00 1000.16 1000.38 1000.78 1001.00 1001.70 1001.90 1001.99 1002.75 1002.16 1001.29 1000.01 1000.02 1000.53 1001.45 1002.40 1003.18 1003.63 1005.39 1005.68 1005.64 1004.33 1002.36 1000.45 999.55 998.87 999.01 999.19 999.31 999.79 1000.18
1014.35 1012.89 1011.20 1010.58 1011.02 1011.42 1011.26 1008.83 1006.14 1003.91 1002.40 1001.30 999.97 999.09 999.52 999.86 1000.15 1000.17 1000.67 1000.84 1001.06 1001.21 1001.52 1001.94 1001.94 1000.24 1000.26 1000.64 1001.15 1001.91 1002.75 1004.01 1005.30 1006.05 1005.82 1004.77 1003.72 1002.84 1001.70 1001.29 1001.02 1001.29 1001.05 1000.82 1000.94
1013.89 1011.56 1008.92 1009.00 1010.08 1010.57 1009.14 1007.52 1005.98 1004.25 1003.06 1001.52 1000.52 999.93 999.77 1000.09 999.67 999.78 1000.02 999.86 1000.07 1000.27 1000.94 1001.78 1002.21 1001.73 1001.02 1001.55 1001.88 1002.19 1002.68 1003.83 1004.94 1005.87 1006.20 1005.68 1005.01 1003.44 1003.05 1003.10 1003.41 1003.70 1003.77 1003.50 1003.36
1012.61 1010.55 1006.83 1007.55 1009.13 1008.45 1007.83 1006.83 1005.64 1003.66 1002.41 1001.51 1001.14 1000.75 1000.57 1000.30 999.42 999.39 999.49 999.26 999.08 999.86 1000.89 1001.78 1002.71 1002.98 1002.61 1001.83 1001.54 1002.03 1002.72 1003.51 1005.15 1006.08 1006.24 1006.17 1006.86 1004.51 1004.28 1004.34 1004.58 1005.16 1005.61 1005.76 1006.40
1011.72 1009.52 1006.58 1006.60 1007.14 1007.20 1007.06 1006.21 1005.01 1003.74 1002.28 1001.42 1001.27 1000.94 1000.63 1000.74 1000.24 999.59 999.49 999.24 999.39 1000.35 1001.61 1002.34 1003.20 1003.88 1003.49 1002.79 1002.41 1002.83 1003.02 1003.13 1004.05 1005.28 1006.42 1007.09 1007.29 1005.76 1005.31 1005.45 1006.01 1006.26 1006.67 1006.57 1006.08
1011.50 1009.52 1008.75 1006.20 1006.46 1006.49 1006.17 1005.46 1004.32 1002.96 1002.16 1001.48 1001.40 1001.18 1001.19 1000.91 1000.43 1001.17 1000.88 1000.58 1000.76 1001.42 1002.19 1002.69 1003.61 1004.42 1004.60 1004.18 1003.90 1003.67 1003.67 1003.92 1004.74 1005.82 1006.57 1007.43 1007.28 1006.99 1006.73 1007.16 1007.49 1007.87 1007.72 1007.87 1007.74
1011.36 1009.63 1009.09 1007.95 1006.40 1005.95 1005.57 1004.61 1003.67 1002.47 1001.77 1001.65 1001.68 1001.49 1001.44 1001.76 1002.35 1002.72 1002.63 1002.13 1002.16 1002.64 1002.87 1003.60 1004.43 1004.61 1004.49 1004.15 1004.18 1004.12 1004.22 1004.70 1005.22 1005.98 1006.91 1008.03 1008.53 1008.45 1008.34 1008.30 1008.88 1009.05 1008.51 1008.64 1008.98
1011.06 1009.64 1009.33 1007.97 1006.98 1005.97 1005.16 1004.17 1003.26 1002.08 1001.86 1001.97 1002.15 1001.61 1001.60 1002.06 1002.20 1003.21 1003.57 1003.89 1004.12 1003.59 1003.92 1004.44 1005.04 1005.11 1005.25 1004.82 1004.79 1004.84 1005.11 1005.38 1005.69 1006.47 1007.90 1009.07 1009.86 1009.60 1009.11 1008.87 1009.26 1009.61 1009.47 1009.67 1010.28
1010.89 1010.35 1010.02 1008.35 1006.96 1006.00 1004.68 1003.69 1002.68 1001.75 1001.71 1001.69 1001.80 1001.85 1001.93 1002.01 1002.39 1002.99 1004.37 1005.34 1005.40 1005.58 1005.18 1005.34 1005.72 1006.21 1006.45 1006.02 1005.93 1006.34 1006.35 1006.48 1007.64 1008.57 1009.48 1010.32 1010.95 1010.71 1010.59 1010.81 1010.95 1011.04 1011.12 1011.16 1011.10
Wind_Speed
13 13 14 16 17 18 19 19 18 17 17 16 16 16 13 11 11 3 7 10 8 10 5 5 6 9 9 6 6 6 2 13 20 6 29 10 16 10 9 10 8 3 12 21 14
14 14 15 16 17 18 19 20 20 18 17 17 15 13 12 8 4 9 9 5 8 13 5 7 8 9 4 4 5 6 4 14 11 17 8 9 15 13 12 17 14 15 20 17 16
14 15 15 17 18 18 20 20 20 19 17 17 15 12 11 6 5 5 6 8 7 10 7 8 9 7 7 6 9 9 12 17 17 6 8 9 8 10 17 12 18 21 20 17 10
12 14 16 17 18 19 21 21 22 20 18 17 14 11 6 4 3 2 6 6 6 5 3 6 8 5 6 7 10 7 17 15 8 6 5 8 9 12 14 12 21 20 19 16 11
12 13 14 16 18 20 21 22 22 21 19 16 13 9 4 4 11 6 6 7 6 4 5 7 6 4 6 7 8 8 13 11 9 7 6 5 6 10 16 17 20 19 17 13 9
13 14 15 17 19 20 21 23 22 20 19 15 11 6 3 6 3 11 9 7 8 5 6 7 7 7 8 9 5 11 14 13 9 7 5 1 9 9 15 17 17 18 15 12 9
12 14 16 17 19 21 23 24 25 20 18 16 9 4 5 16 8 10 11 5 7 8 9 11 10 5 5 10 10 10 10 14 9 6 4 5 7 9 9 16 14 13 14 12 10
12 13 16 18 19 21 23 26 28 25 20 13 7 4 9 10 12 10 10 9 11 10 13 11 10 7 4 8 9 9 6 4 9 9 7 9 4 19 14 11 10 12 13 14 11
12 14 16 18 21 22 25 29 33 21 12 4 4 4 10 6 7 14 13 13 13 10 9 11 5 3 8 5 6 5 6 8 11 12 9 7 7 12 11 17 12 10 13 14 12
13 13 15 18 20 20 25 30 27 8 3 8 6 4 7 11 9 10 10 12 7 5 6 3 4 1 5 0 6 8 5 8 9 17 12 8 7 11 10 11 4 6 15 14 15
14 14 15 18 20 17 14 10 7 3 2 10 5 7 23 10 11 7 9 7 5 5 6 6 3 7 12 11 12 9 7 10 16 17 4 10 7 18 11 13 14 21 17 16 18
13 13 14 17 20 20 6 5 2 7 12 12 19 21 23 14 4 7 9 8 7 7 8 4 11 14 16 14 16 14 10 10 12 10 2 6 7 20 21 23 30 31 20 19 16
13 13 13 15 19 12 7 15 9 7 5 17 20 14 15 11 14 11 10 10 7 8 9 10 13 16 16 13 12 12 7 6 6 9 7 3 2 4 11 10 18 20 20 18 21
13 12 11 13 7 7 8 11 8 7 4 11 10 10 11 12 8 8 15 10 6 12 12 11 16 14 16 10 0 4 5 8 8 6 4 3 6 5 5 11 18 3 14 21 21
13 11 8 2 11 6 10 12 5 5 5 8 12 9 11 15 5 16 10 9 16 15 8 14 9 10 6 4 4 7 7 5 6 6 3 8 3 8 6 8 8 18 18 14 19
12 10 4 7 6 15 15 18 5 1 10 5 8 11 10 12 19 7 9 8 10 14 14 11 6 4 5 5 5 6 4 9 5 4 6 9 6 7 7 9 6 7 11 18 13
12 9 5 6 7 7 14 3 2 6 9 16 13 15 12 10 17 15 13 11 10 4 6 9 6 4 1 5 6 4 6 4 5 4 8 10 3 14 11 13 11 11 12 10 5
10 7 7 11 8 12 8 1 7 12 16 4 12 18 15 12 14 14 11 7 10 8 5 6 5 9 9 9 8 8 9 7 5 3 5 7 7 14 18 18 10 8 7 0 7
3 5 6 10 13 9 5 7 8 8 6 10 9 16 11 14 9 17 12 11 13 9 6 2 5 14 13 6 6 8 4 13 4 5 2 5 10 4 11 9 8 6 5 7 2
5 4 13 11 12 8 6 11 11 14 18 21 8 7 11 17 11 7 10 11 11 13 8 5 5 2 6 5 3 6 4 4 3 4 3 6 4 1 14 11 7 12 11 10 9
5 4 8 16 10 8 11 11 11 19 21 10 10 8 6 2 16 10 10 10 17 15 11 7 3 8 4 3 7 4 5 2 4 4 3 2 2 5 9 9 18 20 16 18 15
3 6 9 13 11 9 12 15 15 19 19 9 5 5 7 10 5 9 11 11 12 6 9 3 5 2 4 6 9 7 6 4 6 6 1 4 4 12 15 14 16 15 15 17 16
4 6 6 15 12 10 12 20 21 20 20 4 5 5 7 6 4 2 6 8 12 8 4 3 2 3 10 8 9 5 9 1 3 4 2 3 3 9 14 10 10 11 12 9 7
3 4 3 9 9 14 15 16 18 20 19 6 6 7 8 8 4 5 7 5 12 7 4 6 3 6 5 2 4 3 8 8 5 4 2 2 5 14 17 15 11 10 7 9 9
3 5 3 6 13 13 9 8 17 17 4 4 7 7 6 1 4 3 3 4 9 2 3 5 3 2 2 5 7 5 4 9 3 1 4 5 9 11 14 14 6 4 8 11 11
4 3 5 7 8 11 10 11 16 13 9 11 6 6 7 5 1 10 6 5 5 2 4 3 1 5 6 6 8 5 9 10 12 11 15 11 8 9 13 15 17 10 8 9 9
2 4 4 4 6 7 11 12 11 9 7 11 8 4 7 3 10 11 8 4 4 3 3 4 3 3 3 6 8 6 13 16 16 19 9 10 4 8 13 13 13 11 10 8 10
Wind_Direction
331 335 333 327 326 324 321 321 320 320 318 316 319 323 321 315 297 215 239 227 188 185 136 269 213 252 258 253 254 268 274 264 267 142 260 120 110 123 136 89 109 180 142 156 159
328 332 328 324 323 320 317 318 317 319 318 317 322 324 317 326 262 232 243 206 201 154 164 226 215 234 249 248 235 177 225 258 268 183 225 136 129 141 123 105 83 97 126 146 160
322 326 324 322 319 319 315 314 314 318 319 317 322 326 311 311 299 236 137 157 160 175 199 222 233 211 238 240 246 243 238 258 285 76 128 134 130 151 126 129 135 137 142 150 168
312 319 320 317 317 317 314 314 315 317 319 317 321 322 318 255 321 95 155 156 165 213 287 290 277 258 247 245 252 250 259 256 265 45 335 152 143 88 122 148 138 140 144 159 178
308 313 314 314 315 315 313 313 311 316 316 314 321 321 286 295 253 146 144 162 148 189 216 236 268 252 263 263 287 269 268 278 281 135 271 119 73 118 115 127 132 138 144 163 167
308 312 312 314 313 311 311 310 310 312 309 309 311 325 239 268 168 144 167 176 158 198 227 241 247 233 282 269 273 288 300 270 291 260 232 312 161 107 134 127 130 141 149 164 174
302 306 309 312 311 312 311 310 307 306 302 300 290 278 267 240 156 171 155 203 182 203 238 247 235 221 231 286 263 281 308 305 270 267 222 192 94 116 124 123 134 145 152 165 183
299 300 305 309 310 311 312 310 305 301 292 285 241 255 253 262 199 178 174 209 220 224 235 265 255 246 236 271 307 306 311 308 284 288 258 119 143 120 128 131 149 158 166 170 193
294 300 306 310 313 316 317 310 299 292 246 184 197 216 261 297 200 189 170 207 210 234 254 268 291 228 327 298 328 300 254 286 281 263 234 139 139 182 159 147 147 187 176 179 187
291 296 302 306 312 319 320 307 287 306 194 195 249 293 259 238 201 225 191 219 199 187 261 272 347 359 301 110 220 248 246 261 254 272 260 224 202 172 156 150 17 253 183 182 190
286 295 302 307 311 323 341 340 348 333 334 271 243 264 297 246 234 199 182 221 258 176 206 215 161 217 229 233 240 249 265 240 256 263 222 205 179 180 140 121 110 295 201 185 190
272 283 295 304 309 311 282 245 319 242 293 274 271 265 268 274 231 192 178 180 229 201 213 275 223 229 223 223 232 244 249 270 279 281 358 194 230 180 170 173 178 206 195 188 183
261 274 290 307 312 299 209 249 293 290 287 287 238 240 238 246 240 191 191 200 209 217 211 205 241 225 243 249 232 238 230 259 263 300 328 58 333 138 187 180 197 206 195 183 193
253 266 289 322 300 306 271 262 259 55 297 262 195 222 215 241 250 238 197 189 233 211 224 226 244 240 242 247 319 281 297 286 284 319 266 116 252 248 253 214 194 138 195 191 201
247 258 279 143 313 285 287 326 0 55 303 167 179 182 165 205 198 222 215 194 228 241 161 243 235 249 274 227 186 247 273 286 296 270 298 309 66 266 244 265 225 198 199 197 198
240 252 308 268 209 246 298 301 16 268 248 199 143 169 162 199 226 231 206 184 230 252 268 246 254 249 237 217 271 276 331 350 341 37 8 268 167 272 253 227 241 228 185 203 223
233 240 212 291 245 330 315 277 208 225 289 150 166 158 192 184 217 219 182 183 216 208 273 290 258 269 8 335 319 318 65 340 347 348 225 256 321 241 249 244 213 214 199 200 236
230 238 233 236 264 304 325 297 232 246 246 308 192 169 190 183 218 222 171 192 221 235 235 225 272 200 205 190 198 229 152 166 217 214 269 287 240 253 250 244 125 102 122 287 277
211 228 241 244 236 250 267 224 215 219 331 336 285 158 195 189 197 214 173 199 203 214 192 269 271 272 174 162 158 278 151 215 210 259 12 256 305 347 356 73 84 128 171 231 331
240 221 249 230 225 235 225 236 246 269 310 313 296 171 175 188 195 176 173 198 218 206 179 256 325 25 104 113 259 181 216 13 337 209 274 300 348 320 11 8 26 43 12 70 49
242 222 244 201 209 221 223 232 253 265 271 284 340 339 355 341 187 194 189 198 206 201 188 181 171 296 85 117 219 299 304 292 128 129 133 297 288 313 50 45 38 39 12 12 28
251 221 205 177 196 210 221 231 253 269 277 267 301 287 286 312 247 208 193 197 176 125 130 133 116 328 265 292 210 194 206 164 114 302 77 170 10 344 31 43 56 44 51 67 70
254 249 297 178 199 193 228 239 244 251 261 229 233 253 285 304 51 5 110 55 86 76 84 27 69 36 332 335 13 17 343 257 139 99 179 114 255 25 27 33 39 61 43 43 29
254 223 309 214 194 201 209 226 245 248 256 274 285 267 303 307 84 70 51 56 64 89 100 82 111 147 178 194 204 316 343 353 57 84 272 50 45 28 21 25 24 33 8 54 40
221 201 186 272 190 222 250 254 232 241 217 252 298 255 265 351 86 75 317 12 76 109 91 91 115 27 274 215 185 262 297 308 326 295 122 88 65 33 30 23 62 35 18 32 43
310 353 17 297 322 220 235 246 250 236 161 238 247 244 283 263 143 198 150 11 73 180 88 25 114 59 353 331 303 240 209 244 269 1 75 95 57 20 23 28 27 24 43 52 57
285 306 192 259 286 231 224 232 246 202 230 212 237 205 267 272 114 106 105 53 99 356 118 104 89 72 264 341 348 357 331 92 76 44 52 60 9 30 29 38 26 22 34 57 62